Logan, UT

10:30 PM MDT on March 24, 2017 (GMT -0600)
Logan-Cache

Weather History for KLGU - July, 2013

Change the Weather History Date:

Tuesday, July 30, 2013

  Actual Average Record
Temperature  
Mean Temperature 72 °F -  
Max Temperature 91 °F 89 °F 102 °F (2000)
Min Temperature 55 °F 56 °F 46 °F (2001)
Cooling Degree Days 8    
Growing Degree Days 22 (Base 50)    
Moisture  
Dew Point 47 °F    
Average Humidity 42    
Maximum Humidity 77    
Minimum Humidity 19    
Precipitation  
Precipitation 0.00 in - - ()
Sea Level Pressure  
Sea Level Pressure 30.01 in    
Wind  
Wind Speed 9 mph (South)    
Max Wind Speed 20 mph    
Max Gust Speed 16 mph    
Visibility 10 miles    
Events Rain , Thunderstorm    
Averages and records for this station are not official NWS values.
T = Trace of Precipitation, MM = Missing Value Source: NWS Daily Summary

Daily Weather History Graph

Daily Weather History Graph

Search for Another Location

Airport or City:

Trip Planner

Search our weather history database for the weather conditions in past years. The results will help you decide how hot, cold, wet, or windy it might be!

Date:

Astronomy

Jul. 30, 2013 Rise Set
Actual Time 6:19 AM MDT 8:47 PM MDT
Civil Twilight 5:48 AM MDT 9:18 PM MDT
Nautical Twilight 5:08 AM MDT 9:57 PM MDT
Astronomical Twilight 4:24 AM MDT 10:41 PM MDT
Moon 12:40 AM MDT (7/30) 3:10 PM MDT (7/30)
Length of Visible Light 15h 30m
Length of Day
14h 27m
Last Quarter, 40% of the Moon is Illuminated
Jul 30
Last Quarter
Aug 6
New
Aug 14
First Quarter
Aug 20
Full
Aug 28
Last Quarter

Hourly Weather History & Observations

Time (MDT) Temp. Dew Point Humidity Pressure Visibility Wind Dir Wind Speed Gust Speed Precip Events Conditions
12:51 AM 66.0 °F 51.1 °F 59% 29.99 in 10.0 mi West 16.1 mph - N/A   Overcast
1:21 AM 68.0 °F 51.8 °F 56% 30.11 in 10.0 mi East 19.6 mph - 0.00 in Rain , Thunderstorm Light Rain
1:30 AM 69.8 °F 48.2 °F 46% 30.10 in 10.0 mi ESE 12.7 mph - 0.00 in Thunderstorm Scattered Clouds
1:39 AM 69.8 °F 50.0 °F 49% 30.10 in 10.0 mi SE 12.7 mph - 0.00 in   Scattered Clouds
1:51 AM 71.1 °F 50.0 °F 47% 29.94 in 10.0 mi SE 11.5 mph - 0.00 in   Partly Cloudy
2:51 AM 66.9 °F 50.0 °F 54% 29.95 in 10.0 mi South 6.9 mph - N/A   Clear
3:51 AM 63.0 °F 51.1 °F 65% 29.97 in 10.0 mi ENE 3.5 mph - N/A   Clear
4:51 AM 62.1 °F 50.0 °F 65% 29.99 in 10.0 mi Calm Calm - N/A   Clear
5:51 AM 55.9 °F 48.9 °F 77% 30.01 in 10.0 mi Calm Calm - N/A   Clear
6:51 AM 59.0 °F 50.0 °F 72% 30.03 in 10.0 mi Calm Calm - N/A   Clear
7:51 AM 66.0 °F 50.0 °F 56% 30.04 in 10.0 mi Calm Calm - N/A   Clear
8:51 AM 70.0 °F 48.9 °F 47% 30.06 in 10.0 mi Calm Calm - N/A   Clear
9:51 AM 75.0 °F 46.9 °F 37% 30.06 in 10.0 mi Calm Calm - N/A   Clear
10:51 AM 79.0 °F 48.9 °F 35% 30.05 in 10.0 mi Calm Calm - N/A   Clear
11:51 AM 82.9 °F 46.0 °F 27% 30.04 in 10.0 mi SSW 4.6 mph - N/A   Clear
12:51 PM 86.0 °F 45.0 °F 24% 30.04 in 10.0 mi SSW 5.8 mph - N/A   Clear
1:51 PM 84.9 °F 44.1 °F 24% 30.01 in 10.0 mi Calm Calm - N/A   Clear
2:51 PM 87.1 °F 43.0 °F 21% 30.00 in 10.0 mi Variable 4.6 mph - N/A   Clear
3:51 PM 89.1 °F 43.0 °F 20% 29.99 in 10.0 mi South 6.9 mph - N/A   Clear
4:51 PM 90.0 °F 42.1 °F 19% 29.98 in 10.0 mi SW 12.7 mph - N/A   Clear
5:51 PM 86.0 °F 46.0 °F 25% 29.99 in 10.0 mi SW 10.4 mph 16.1 mph N/A   Clear
6:51 PM 88.0 °F 44.1 °F 22% 29.97 in 10.0 mi SW 11.5 mph - N/A   Clear
7:51 PM 82.9 °F 46.0 °F 27% 29.97 in 10.0 mi WSW 3.5 mph - N/A   Clear
8:51 PM 79.0 °F 46.9 °F 32% 29.98 in 10.0 mi East 4.6 mph - N/A   Clear
9:51 PM 73.9 °F 46.0 °F 37% 30.00 in 10.0 mi ESE 6.9 mph - N/A   Clear
10:51 PM 75.0 °F 44.1 °F 33% 30.00 in 10.0 mi South 6.9 mph - N/A   Clear
11:51 PM 68.0 °F 48.0 °F 49% 30.01 in 10.0 mi SSW 8.1 mph - N/A   Clear